Location: ??
(35.1714°N, 128.2806°E)
Time: 10:55:32
(UTC+00:00)

ISS - Visible Passes

Search period start: 25 June 2021 00:00
Search period end: 05 July 2021 00:00
Orbit: 419 x 422 km, 51.6° (Epoch: 25 June)

Date Brightness Start Highest point End Pass type
(mag) Time Alt. Az. Time Alt. Az. Time Alt. Az.
25 Jun -3.7 19:14:39 17° SW 19:17:08 72° SE 19:20:30 10° NE visible
26 Jun -2.8 18:29:23 33° SSE 18:30:02 37° SE 18:33:10 10° ENE visible
27 Jun -1.4 17:44:03 17° ESE 17:44:03 17° ESE 17:45:32 10° E visible
27 Jun -2.5 19:17:02 13° W 19:19:38 33° NW 19:22:44 10° NNE visible
28 Jun -3.4 18:31:39 44° W 18:32:24 57° NW 18:35:44 10° NE visible
29 Jun -2.6 17:46:12 42° ENE 17:46:12 42° ENE 17:48:36 10° NE visible
29 Jun -1.2 19:20:28 10° WNW 19:22:24 14° NNW 19:24:19 10° N visible
30 Jun -0.8 17:00:42 14° ENE 17:00:42 14° ENE 17:01:16 10° ENE visible
30 Jun -1.7 18:33:40 17° WNW 18:35:01 21° NNW 18:37:39 10° NNE visible
01 Jul -2.2 17:48:08 31° NNW 17:48:08 31° NNW 17:50:48 10° NNE visible
02 Jul -1.1 17:02:33 20° NNE 17:02:33 20° NNE 17:03:48 10° NE visible
02 Jul -0.7 18:37:35 10° NNW 18:37:55 10° NNW 18:38:15 10° NNW visible
03 Jul -1.1 17:49:52 13° NW 17:50:29 14° NNW 17:52:22 10° N visible
04 Jul -1.0 17:04:12 17° N 17:04:12 17° N 17:05:42 10° NNE visible
